Location: *
(55.5817°S, 142.4781°W)
Time: 05:46:56
(UTC+00:00)

Cosmos 2369 Rocket - Pass Details

Date: 29 April 2025
Orbit: 826 x 853 km, 71.0° (Epoch: 23 May)

Event Time Altitude Azimuth Distance (km) Brightness Sun altitude
Exits shadow 12:23:32 26° 162° (SSE) 1,612 4.0 -37.0°
Drops below altitude 10° 12:26:04 10° 150° (SSE) 2,475 5.2 -36.7°
Sets 12:28:36 0° 144° (SE) 3,411 6.2 -36.4°
